Theta_e
320 318 316 318 319 318 317 316 316 318 318 318 319 320 323 323 324 323 323 322 321 320 319 317 314 313 313 315 314 312 310 310 304 304 304 303 303 302 301 300 304 305 308
318 317 316 317 317 316 313 314 316 315 316 314 316 318 320 321 321 323 322 321 320 318 318 316 312 313 313 313 311 309 309 308 307 303 301 300 300 300 298 298 300 302 302
316 314 314 313 314 314 314 314 313 313 313 313 315 315 317 319 320 322 319 317 315 314 314 314 312 312 311 311 310 308 307 307 305 303 298 299 298 299 297 298 298 298 301
316 314 313 313 313 314 312 310 312 312 312 313 314 316 316 316 316 314 313 312 311 311 311 311 311 311 310 309 308 306 306 304 303 300 298 297 297 297 297 296 295 296 296
313 313 311 312 312 311 310 310 311 312 312 312 312 312 312 313 313 312 312 310 309 308 309 310 310 312 313 311 307 305 304 302 301 299 296 295 294 294 294 295 294 293 293
310 310 311 310 310 309 308 310 310 311 312 312 312 312 311 313 314 312 310 309 309 308 306 308 311 313 313 313 311 309 305 300 298 296 295 294 292 292 292 292 291 292 292
311 309 310 310 309 308 308 308 308 309 310 309 310 311 311 312 314 313 310 306 305 305 304 304 304 305 305 303 305 304 303 305 302 293 289 288 287 288 289 289 288 288 288
309 309 310 309 308 307 306 305 306 307 307 307 308 309 309 310 312 310 308 304 303 303 303 302 301 300 300 296 294 294 295 294 293 293 289 288 288 289 289 289 288 288 289
309 308 309 308 306 305 304 304 306 306 305 305 306 306 306 308 310 308 305 302 301 300 299 297 296 295 303 302 294 293 293 294 300 300 299 299 298 297 295 289 286 285 284
308 308 308 307 305 303 303 304 306 306 304 305 304 305 307 305 309 309 305 301 297 297 297 297 302 299 303 303 294 292 290 290 292 292 292 295 294 294 296 288 287 284 283
308 307 306 306 304 304 303 304 305 304 304 303 302 303 303 304 307 310 307 299 297 295 295 294 295 302 303 302 299 293 292 292 294 290 289 289 289 289 288 288 290 290 287
307 306 305 304 305 305 304 304 305 304 303 302 301 300 300 300 305 308 307 303 301 296 294 294 297 301 301 301 298 300 299 296 291 289 288 287 286 286 287 288 291 292 293
305 304 304 305 305 304 304 303 304 304 301 299 298 296 296 296 298 306 305 303 302 296 296 298 299 299 299 296 297 298 295 289 288 287 286 285 285 286 289 291 292 292 292
303 304 305 305 305 305 306 305 303 298 296 297 296 295 295 294 294 295 296 298 301 297 297 295 295 295 296 294 291 290 289 288 287 286 285 285 286 286 288 290 285 285 285
303 303 303 306 304 305 302 303 300 298 297 294 293 295 293 293 294 296 294 293 292 294 292 290 288 288 287 286 287 288 287 287 286 285 284 284 286 287 285 287 287 286 284
302 302 304 305 303 300 295 294 303 303 304 303 302 297 297 301 303 303 302 300 299 299 291 288 286 286 285 285 285 285 286 287 285 285 284 286 286 285 285 286 287 286 283
302 303 304 304 302 297 294 292 291 297 303 303 304 303 302 301 301 300 299 299 297 296 289 288 286 286 285 285 285 285 284 285 285 284 284 284 285 285 284 284 284 284 282
304 304 305 304 301 298 296 293 292 291 291 292 301 301 302 301 300 299 298 296 291 293 290 288 287 286 285 285 285 285 285 285 284 285 286 286 285 285 283 283 283 283 282
303 304 305 304 301 299 296 293 292 292 292 293 295 298 300 300 299 298 299 291 289 289 289 289 288 287 286 286 286 286 285 284 284 286 286 285 285 284 283 282 282 283 283
304 305 305 303 301 299 295 293 292 292 293 293 294 294 295 296 293 292 293 294 291 290 290 289 288 288 287 286 286 286 284 284 283 285 285 284 283 283 281 282 282 282 282
304 305 305 303 300 298 295 293 292 292 292 293 294 296 298 293 292 291 291 293 293 291 289 289 288 287 287 286 286 285 284 283 284 285 284 282 281 281 281 280 282 283 282
304 305 304 302 300 297 295 294 292 292 292 292 294 297 299 292 292 292 292 293 293 292 291 290 288 287 287 286 286 285 283 283 284 283 282 282 282 282 281 281 280 282 282
305 305 303 301 300 298 296 294 293 292 292 292 294 296 295 292 292 293 293 293 293 292 292 290 288 287 287 287 287 286 285 284 284 284 282 282 282 281 282 280 281 282 281
305 305 303 301 299 296 295 294 293 294 293 293 295 295 294 293 293 294 293 293 292 291 291 289 288 287 286 286 287 288 287 286 286 285 285 283 283 283 281 280 280 281 280
305 305 304 301 299 297 296 295 294 294 294 295 295 295 294 293 294 294 294 293 291 290 289 288 287 287 287 287 287 286 288 288 285 286 284 284 283 283 281 280 280 282 281
306 306 304 302 300 298 296 295 294 294 294 294 295 294 294 293 294 294 294 293 290 288 288 287 287 287 287 287 287 288 288 287 284 286 284 284 283 282 281 281 281 281 281
Wind_Speed
5 7 6 6 8 8 7 5 4 4 2 2 3 2 3 3 3 3 5 6 7 6 7 9 7 8 6 5 5 4 4 2 3 3 3 6 6 5 5 5 5 6 4
7 6 5 5 5 6 6 4 3 3 3 2 3 2 2 4 2 4 6 5 6 5 5 8 10 7 7 8 6 5 4 3 3 3 3 4 4 4 4 4 4 4 3
6 6 5 6 5 5 5 5 5 5 4 3 2 3 1 1 3 5 6 5 4 4 4 4 6 8 8 7 6 4 3 4 3 3 2 1 2 1 3 2 1 2 1
6 6 6 6 5 5 5 6 5 4 4 4 3 2 3 5 6 8 9 8 8 6 6 6 6 6 9 8 6 5 4 4 3 3 2 2 2 1 1 1 1 1 2
7 6 6 4 6 5 5 7 5 4 4 4 6 8 7 7 6 10 9 9 10 10 10 8 7 11 15 11 6 4 4 4 4 3 2 2 1 1 1 2 2 2 3
7 5 5 6 5 6 5 7 5 5 6 6 8 8 9 7 19 19 13 10 11 10 11 10 11 15 16 18 16 13 8 5 3 3 2 3 3 2 2 1 1 1 2
8 7 5 7 7 6 6 8 6 7 9 9 10 10 10 11 21 22 21 10 12 10 10 10 10 9 13 11 18 19 17 19 16 7 9 5 5 4 3 5 5 3 2
8 7 6 8 9 8 7 8 6 9 9 8 10 11 11 11 22 23 22 13 11 11 11 9 8 8 8 11 12 11 11 11 10 9 8 5 5 5 4 1 1 1 3
9 7 6 9 9 8 8 9 7 10 10 10 10 11 11 11 22 23 18 12 10 10 10 9 8 7 16 17 10 10 8 7 13 16 14 13 13 12 11 5 5 5 4
9 8 8 10 10 9 8 9 8 9 10 10 11 11 16 13 17 16 13 9 11 9 10 8 15 9 11 15 7 7 6 5 5 4 3 4 5 7 13 7 4 4 2
10 10 9 10 10 9 8 6 9 10 11 11 11 10 10 8 6 13 15 8 8 8 7 5 4 14 17 18 15 7 6 5 6 4 4 5 5 5 4 5 5 3 2
11 11 11 11 9 8 9 5 8 10 12 11 10 9 7 7 14 17 17 16 15 9 8 4 7 16 17 17 10 13 11 8 4 4 5 5 5 4 4 4 5 4 3
12 12 11 11 11 10 8 7 7 8 8 8 8 8 6 5 7 19 20 20 19 11 7 14 17 16 16 11 12 14 13 5 4 5 4 4 3 3 4 4 5 5 4
12 11 11 11 13 10 6 4 6 5 5 7 8 8 7 5 5 6 7 10 17 11 12 8 11 11 10 9 9 7 4 4 5 5 5 3 4 4 3 3 2 4 3
11 10 6 9 10 9 5 3 5 4 6 5 5 7 8 7 5 10 9 6 6 9 8 4 3 4 4 4 4 5 4 5 5 4 4 4 4 4 3 4 4 4 3
11 8 7 8 7 8 7 7 14 11 13 13 12 8 5 13 16 15 18 18 15 13 4 4 3 4 4 3 4 3 4 6 4 4 4 4 5 5 5 4 4 4 4
13 10 8 9 8 9 7 8 7 10 16 13 17 19 17 18 19 18 18 13 7 5 4 4 4 4 4 4 4 4 4 3 4 4 5 4 4 5 6 5 5 5 4
13 15 9 9 8 8 8 7 6 7 8 5 12 14 19 20 18 17 14 9 4 5 4 4 4 4 4 4 3 3 3 4 4 4 4 3 3 3 4 5 5 5 5
11 9 8 8 9 10 9 8 6 6 7 7 8 10 14 19 18 16 11 4 4 4 4 4 5 4 4 4 4 4 4 4 3 3 3 3 4 3 3 5 5 10 9
12 16 9 9 9 10 9 9 7 8 8 8 7 8 8 11 6 4 2 4 4 4 4 5 4 4 4 4 4 3 3 3 4 4 3 3 2 2 2 3 3 3 4
9 10 13 10 9 10 9 9 7 8 8 8 8 9 15 8 7 5 4 4 5 5 5 5 4 5 4 4 3 3 5 4 4 2 3 2 3 2 2 4 4 3 5
11 11 10 10 9 10 9 8 7 7 8 8 8 11 18 4 5 5 5 4 5 5 5 5 5 4 4 4 4 4 5 4 3 3 1 2 2 3 3 3 4 5 5
11 13 11 10 10 13 10 8 7 7 7 7 9 10 9 5 6 6 5 5 5 5 5 5 5 5 4 4 4 4 5 4 4 3 0 2 2 2 3 3 3 4 5
13 14 13 11 11 10 10 9 8 9 8 8 9 10 9 5 6 7 6 5 5 5 5 5 5 7 5 4 4 3 4 4 4 3 4 3 3 4 3 3 4 5 4
13 13 13 13 13 11 11 10 9 9 9 9 9 9 8 5 7 7 7 7 6 6 6 6 5 7 8 8 6 7 8 10 6 5 3 3 3 5 3 3 4 5 3
13 14 12 11 12 12 11 11 10 10 9 9 9 9 9 6 7 8 8 8 6 6 6 5 7 9 9 7 8 9 10 9 5 5 4 2 3 2 2 4 6 3 5
Wind_Direction
114 88 82 62 65 54 53 45 37 55 88 248 327 11 195 201 245 165 151 167 179 167 159 171 164 158 160 157 135 116 107 77 116 55 71 22 50 75 65 54 57 48 73
97 97 85 83 104 106 77 66 60 60 49 351 310 278 231 154 199 196 149 168 166 159 170 174 162 161 160 140 129 114 122 116 135 114 52 44 48 35 52 52 30 52 29
134 128 136 121 99 101 87 63 51 54 42 334 278 260 258 175 128 119 119 115 97 100 103 136 148 152 134 124 115 113 91 67 75 119 123 96 64 52 53 49 55 46 356
153 114 91 89 102 95 100 75 48 54 40 33 36 183 131 118 103 100 99 99 93 86 84 90 101 120 128 108 97 88 83 97 91 99 87 88 80 68 97 163 265 229 245
102 94 109 106 93 84 73 74 62 56 61 58 73 74 76 80 97 103 101 98 96 85 87 78 93 103 103 105 103 94 131 105 97 92 91 98 122 149 179 184 217 185 225
111 118 114 106 93 90 79 78 67 73 70 73 73 77 79 86 99 98 95 92 91 85 77 70 72 83 94 101 107 102 96 99 104 117 103 97 50 51 17 206 266 128 117
125 134 131 124 113 97 88 76 65 73 73 65 74 77 82 96 102 99 92 87 85 82 84 85 86 90 91 91 84 68 60 69 73 92 80 53 61 23 28 27 20 47 94
135 142 155 125 112 99 90 85 80 84 76 74 76 80 82 92 101 99 94 89 89 89 92 90 90 96 95 87 79 70 59 61 64 74 85 86 81 47 46 131 10 341 75
138 142 116 117 114 107 100 95 92 92 86 81 82 87 91 94 101 103 103 98 91 81 76 69 63 70 101 104 100 99 88 78 86 94 98 92 78 63 58 58 17 45 31
140 133 119 119 117 114 111 106 104 97 96 93 90 89 97 99 103 104 96 97 90 84 71 62 78 77 83 124 119 117 113 142 119 94 86 108 96 76 69 76 63 52 42
132 127 120 118 119 119 113 105 114 111 107 102 98 93 85 81 113 110 105 102 106 99 90 74 67 85 76 75 82 88 105 97 92 96 73 48 54 59 51 62 48 35 17
135 132 128 127 125 125 122 116 124 124 113 108 102 88 70 63 76 87 95 98 101 103 100 88 86 89 84 80 74 81 75 58 46 54 66 55 52 35 15 14 23 5 14
136 136 135 136 129 134 134 135 125 121 117 117 111 101 90 61 76 91 97 100 99 94 101 101 95 88 80 72 76 65 53 43 52 60 70 58 52 24 23 6 8 5 353
144 144 149 150 138 143 144 132 119 115 115 124 124 120 116 98 82 83 86 94 99 96 98 90 100 101 94 80 64 57 54 58 63 58 61 46 30 9 8 6 18 340 5
149 147 152 140 133 145 76 112 122 120 124 130 130 134 136 130 132 130 128 121 109 119 116 88 82 80 80 73 59 57 48 49 63 61 54 36 34 24 6 359 22 4 3
150 155 146 144 135 114 99 72 55 102 111 115 122 128 125 127 136 131 117 120 134 139 99 103 94 95 94 96 96 74 54 59 51 62 53 34 32 21 11 360 4 358 352
155 156 149 145 130 126 117 113 105 64 78 96 109 116 123 124 119 119 122 123 108 88 97 96 100 101 98 86 87 91 90 65 62 61 58 54 28 20 12 6 358 353 348
159 160 156 149 135 129 128 125 124 126 117 96 106 122 124 124 127 129 130 109 83 87 102 114 111 108 104 102 100 107 119 101 85 72 58 60 48 12 10 7 359 344 345
153 164 160 142 139 134 129 133 132 130 127 119 118 118 131 133 139 146 145 117 132 125 118 108 112 113 110 107 98 87 102 112 103 78 55 41 20 3 11 6 354 354 353
158 167 156 142 146 138 140 144 143 142 142 139 141 147 146 139 151 163 166 137 137 134 132 118 120 116 115 121 124 124 120 90 88 74 57 49 7 1 33 335 332 313 330
157 165 156 147 153 146 147 149 147 147 152 153 152 160 162 153 156 164 175 151 144 141 141 128 130 126 128 127 121 104 105 102 86 88 80 327 321 23 302 295 309 18 355
160 166 160 157 152 148 149 147 147 145 152 154 148 160 168 154 153 159 178 155 143 141 140 133 130 133 138 137 145 134 139 139 129 95 135 304 21 1 344 7 16 5 333
163 170 164 158 154 153 150 149 146 148 153 156 152 159 173 177 162 161 162 149 136 134 134 128 127 126 127 131 131 142 140 149 149 148 172 32 31 18 358 21 2 352 342
167 172 166 160 156 159 156 155 149 151 156 159 157 165 173 184 158 153 146 138 132 133 130 131 132 140 136 132 133 119 118 129 128 123 87 64 40 6 8 10 357 328 325
170 174 170 165 162 160 158 156 156 160 164 160 160 165 171 175 150 144 140 139 138 133 136 137 137 145 148 148 135 115 108 100 97 64 85 57 27 34 40 333 308 308 341
173 176 172 166 165 160 162 162 161 162 164 161 162 164 170 163 149 145 142 142 138 135 137 141 145 148 153 149 127 129 118 109 104 85 49 37 47 8 329 311 328 8 357